{"data":{"norad_id":65649,"intl_designator":"2025-210AD","name":"STARLINK-35079","alt_names":[],"object_type":"PAYLOAD","status":"ACTIVE","operator":null,"country":"US","launch_date":"2025-09-18","launch_site_code":"AFETR","launch_vehicle":null,"mission":null,"orbit_class":"UNKNOWN","rcs_meters":null,"size_class":null,"mass_kg":null,"dimensions":null,"purposes":["comms"],"wikipedia_slug":null,"has_3d_model":false,"image_url":null,"decayed_at":null,"tle_current":{"epoch":"2026-05-24T16:20:33.692064Z","epoch_age_seconds":102691,"freshness":"FRESH","line1":"1 65649U 25210AD  26144.68094551  .00012953  00000+0  44863-3 0  9992","line2":"2 65649  53.1588 314.2412 0000774  73.8874 286.2212 15.30204285 39368","mean_motion":15.30204285,"eccentricity":7.74e-5,"inclination_deg":53.1588,"raan_deg":314.2412,"arg_perigee_deg":73.8874,"mean_anomaly_deg":286.2212,"bstar":0.00044863,"rev_number":3936,"period_min":94.105082185154,"perigee_km":474.67182675166,"apogee_km":475.73272367146,"semimajor_km":6853.3392752116,"source":"CELESTRAK","updated_at":"2026-05-25T13:38:20.887122Z"}}}